GW6259 Weather Reports


Display with metric or nautical units.
time (UTC)temp
F
wind
direction
speed
MPH
gust
MPH
rain 1hr
in
rain 24hr
in
rain mn
in
humidity
%
barometer
mb
20260508040038 53 276 2.0 3.0 0.00 0.01 0.01 87 1014.1
20260508034536 53 261 2.0 4.0 0.00 0.01 0.01 87 1014.0
20260508033017 53 264 2.0 3.0 0.00 0.01 0.01 86 1013.8
20260508031519 53 245 2.0 3.0 0.00 0.01 0.01 86 1013.7
20260508030022 53 271 2.0 3.0 0.00 0.01 0.01 87 1013.5
20260508024527 53 244 3.0 4.0 0.00 0.01 0.01 86 1013.6
20260508023027 53 293 1.0 1.0 0.00 0.01 0.01 86 1013.4
20260508021515 53 293 0.0 0.0 0.00 0.01 0.01 86 1013.4
20260508020022 53 293 1.0 1.0 0.00 0.01 0.01 86 1013.5
20260508014504 53 293 1.0 2.0 0.00 0.01 0.01 88 1013.6
20260508013008 53 308 2.0 3.0 0.00 0.01 0.01 90 1013.6
20260508011503 52 329 0.0 1.0 0.00 0.01 0.01 92 1013.3
20260508010004 52 25 0.0 2.0 0.00 0.01 0.01 92 1013.4
20260508004503 51 221 0.0 2.0 0.00 0.01 0.01 92 1013.5
20260508003004 52 343 2.0 3.0 0.00 0.01 0.01 93 1013.8
20260508001507 52 350 3.0 4.0 0.01 0.01 0.01 93 1013.8
20260508000002 52 110 0.0 0.0 0.01 0.01 0.01 93 1014.2
20260507234503 52 124 0.0 3.0 0.01 0.01 0.01 93 1014.7
20260507233004 53 145 0.0 1.0 0.01 0.01 0.01 93 1014.9
20260507231506 53 160 1.0 4.0 0.00 0.00 0.00 93 1015.2
20260507230014 53 263 4.0 6.0 0.00 0.00 0.00 93 1015.4
20260507224516 53 282 3.0 8.0 0.00 0.00 0.00 92 1015.4
20260507223007 53 265 7.0 9.0 0.00 0.00 0.00 91 1015.8
20260507221504 54 304 5.0 7.0 0.00 0.00 0.00 85 1015.2
20260507220006 54 302 1.0 1.0 0.00 0.00 0.00 85 1014.8
20260507214509 54 131 0.0 3.0 0.00 0.00 0.00 85 1014.4
20260507213023 53 339 1.0 5.0 0.00 0.00 0.00 90 1014.1
20260507211504 53 154 0.0 0.0 0.00 0.00 0.00 91 1014.3
20260507210005 53 154 1.0 1.0 0.00 0.00 0.00 91 1014.5
20260507204508 53 223 1.0 3.0 0.00 0.00 0.00 91 1014.7
20260507203012 53 275 0.0 1.0 0.00 0.00 0.00 90 1014.6
20260507201517 53 257 2.0 3.0 0.00 0.00 0.00 90 1014.7
20260507200004 53 262 0.0 2.0 0.00 0.00 0.00 89 1014.5
20260507194520 53 138 0.0 0.0 0.00 0.00 0.00 89 1014.3
20260507193014 53 138 0.0 0.0 0.00 0.00 0.00 88 1014.1
20260507191516 53 103 0.0 0.0 0.00 0.00 0.00 88 1013.9
20260507190027 53 100 0.0 3.0 0.00 0.00 0.00 88 1013.9
20260507184504 53 135 1.0 3.0 0.00 0.00 0.00 87 1014.0
20260507183008 53 99 2.0 8.0 0.00 0.00 0.00 87 1013.8
20260507181508 53 180 3.0 5.0 0.00 0.00 0.00 87 1014.1
20260507180018 54 134 2.0 6.0 0.00 0.00 0.00 87 1013.7
20260507174519 54 152 3.0 7.0 0.00 0.00 0.00 86 1013.2
20260507173011 55 124 5.0 7.0 0.00 0.00 0.00 85 1013.5
20260507171509 55 166 3.0 7.0 0.00 0.00 0.00 84 1013.7
20260507170019 56 160 3.0 9.0 0.00 0.00 0.00 83 1013.6
20260507164522 56 92 4.0 8.0 0.00 0.00 0.00 82 1013.7
20260507163021 56 105 7.0 13.0 0.00 0.00 0.00 80 1013.5
20260507161505 57 116 7.0 16.0 0.00 0.00 0.00 79 1013.5
20260507160010 58 108 7.0 11.0 0.00 0.00 0.00 78 1013.9
20260507154514 58 137 8.0 13.0 0.00 0.00 0.00 77 1013.9
20260507151524 58 96 5.0 17.0 0.00 0.00 0.00 76 1014.0
20260507150008 59 74 7.0 13.0 0.00 0.00 0.00 76 1013.1
20260507144511 58 168 7.0 14.0 0.00 0.00 0.00 77 1013.4
20260507141521 59 60 8.0 16.0 0.00 0.00 0.00 73 1013.5
20260507140023 60 124 9.0 21.0 0.00 0.00 0.00 74 1013.5
20260507134507 61 139 9.0 17.0 0.00 0.00 0.00 72 1013.9
20260507130021 60 139 10.0 17.0 0.00 0.00 0.00 71 1013.7
20260507124534 62 89 10.0 17.0 0.00 0.00 0.00 68 1014.3
20260507121516 61 109 11.0 18.0 0.00 0.00 0.00 66 1014.1
20260507120007 61 98 10.0 17.0 0.00 0.00 0.00 65 1013.7
20260507113027 60 87 12.0 22.0 0.00 0.00 0.00 61 1013.9
20260507111512 62 68 13.0 26.0 0.00 0.00 0.00 58 1014.2
20260507110018 62 88 14.0 22.0 0.00 0.00 0.00 57 1014.5
20260507104504 63 58 10.0 18.0 0.00 0.00 0.00 55 1014.4
20260507103004 62 85 15.0 22.0 0.00 0.00 0.00 54 1014.5
20260507101516 61 101 18.0 28.0 0.00 0.00 0.00 53 1014.3
20260507100016 62 96 16.0 25.0 0.00 0.00 0.00 50 1014.6
20260507094521 61 79 17.0 29.0 0.00 0.00 0.00 48 1014.8
20260507093004 62 93 13.0 27.0 0.00 0.00 0.00 47 1014.8
20260507091508 61 108 13.0 25.0 0.00 0.00 0.00 46 1014.9
20260507090013 61 135 14.0 24.0 0.00 0.00 0.00 47 1015.0
20260507084517 60 108 15.0 24.0 0.00 0.00 0.00 49 1015.1
20260507073017 58 134 15.0 25.0 0.00 0.00 0.00 58 1014.8
20260507071520 59 117 12.0 21.0 0.00 0.00 0.00 52 1014.9
20260507063020 58 122 11.0 21.0 0.00 0.00 0.00 45 1015.0
20260507061521 57 118 12.0 22.0 0.00 0.00 0.00 46 1014.9
20260507060022 57 101 10.0 17.0 0.00 0.00 0.00 45 1014.7
20260507054506 57 114 10.0 20.0 0.00 0.00 0.00 44 1014.6
20260507053014 57 74 11.0 19.0 0.00 0.00 0.00 43 1014.5
20260507050027 56 58 8.0 15.0 0.00 0.00 0.00 45 1014.7
20260507044525 55 96 8.0 13.0 0.00 0.00 0.00 44 1014.9
20260507043019 55 88 8.0 14.0 0.00 0.00 0.00 44 1014.7
20260507041514 55 131 6.0 13.0 0.00 0.00 0.00 43 1015.1